Regional Weather Roundup
Issued by NWS

Home | Current Version | Previous Version | Graphics & Text | Print | Product List | Glossary On
Versions: 1 2 3 4 5 6 7 8 9 10 11 12 13 14 15 16 17 18 19 20 21 22 23 24 25 26 27 28 29 30 31 32 33 34 35 36 37 38 39 40 41 42 43 44 45 46 47 48 49 50
308
ASUS43 KFSD 301410
RWRSD

WEATHER ROUNDUP FOR SOUTH DAKOTA
NATIONAL WEATHER SERVICE SIOUX FALLS SD
900 AM CDT SUN APR 30 2017

NOTE: "FAIR" INDICATES FEW OR NO CLOUDS BELOW 12,000 FEET WITH NO
SIGNIFICANT WEATHER AND/OR OBSTRUCTIONS TO VISIBILITY.


SDZ001>005-009-010-012>017-301500-
NORTHWEST AND NORTH CENTRAL SOUTH DAKOTA

CITY           SKY/WX    TMP DP  RH WIND       PRES   REMARKS
BUFFALO          N/A     41  27  57 W5        29.98F
FAITH            N/A     42  28  57 NE5       30.05F
MOBRIDGE       SUNNY     45  26  47 CALM      30.06F
$$

SDZ012>016-024>037-041>051-057-063-072>074-301500-
SOUTHWEST AND SOUTH CENTRAL SOUTH DAKOTA

CITY           SKY/WX    TMP DP  RH WIND       PRES   REMARKS
RAPID CTY ARPT SUNNY     45  22  40 N14       30.05F
PIERRE         CLOUDY    40  26  57 N10       30.03F
CUSTER         SUNNY     37  16  42 N3        30.03F
ELLSWORTH AFB  SUNNY     45  20  37 N10       30.05F
PHILIP         SUNNY     38  29  70 W6        30.04F
PINE RIDGE     SUNNY     32  28  85 SW3       30.02F
SPEARFISH      FAIR      41  23  48 CALM      30.06F
WINNER         FAIR      40  28  62 N12       29.99F
$$

SDZ004>011-016>023-039-040-301500-
NORTHEAST SOUTH DAKOTA

CITY           SKY/WX    TMP DP  RH WIND       PRES   REMARKS
ABERDEEN       PTSUNNY   42  31  64 N5        30.08F
WATERTOWN      PTSUNNY   40  26  57 NE13      30.03F
BROOKINGS      CLOUDY    41  26  55 NE9       30.01R
SISSETON         N/A     46  27  47 E7        30.08F
$$

SDZ017-020-022-023-036>040-048>070-301500-
SOUTHEAST SOUTH DAKOTA

CITY           SKY/WX    TMP DP  RH WIND       PRES   REMARKS
SIOUX FALLS    LGT RAIN  38  38 100 NE13      29.97S
HURON          PTSUNNY   43  27  53 NE10      30.03F
CHAMBERLAIN    CLOUDY    43  29  58 NW8       30.01F
MITCHELL       CLOUDY    42  27  55 N15       30.00F
YANKTON        CLOUDY    37  34  87 N16G25    29.93F
$$

ABBREVIATIONS USED IN REMARKS
   TC - TEMPERATURE IN CELSIUS
  WCI - WIND CHILL INDEX
   HX - HEAT INDEX
  VSB - VISIBILITY





USA.gov is the U.S. government's official web portal to all federal, state and local government web resources and services.